TimeCDT,TemperatureF,Dew PointF,Humidity,Sea Level PressureIn,VisibilityMPH,Wind Direction,Wind SpeedMPH,Gust SpeedMPH,PrecipitationIn,Events,Conditions,WindDirDegrees,DateUTC
12:53 AM,61.0,55.0,81,30.07,10.0,North,12.7,17.3,N/A,,Overcast,350,2012-10-07 05:53:00
1:53 AM,60.1,54.0,80,30.07,10.0,North,5.8,-,N/A,,Overcast,10,2012-10-07 06:53:00
2:53 AM,59.0,54.0,83,30.08,10.0,North,5.8,-,N/A,,Overcast,360,2012-10-07 07:53:00
3:53 AM,59.0,54.0,83,30.07,10.0,North,3.5,-,N/A,,Overcast,360,2012-10-07 08:53:00
4:53 AM,59.0,54.0,83,30.08,10.0,North,10.4,-,N/A,,Overcast,360,2012-10-07 09:53:00
5:53 AM,59.0,53.1,81,30.10,10.0,NNW,11.5,16.1,N/A,,Overcast,340,2012-10-07 10:53:00
6:53 AM,57.9,53.1,84,30.12,10.0,North,8.1,-,N/A,,Overcast,360,2012-10-07 11:53:00
7:53 AM,57.0,52.0,83,30.14,10.0,NNW,11.5,-,N/A,,Overcast,340,2012-10-07 12:53:00
8:53 AM,57.9,51.1,78,30.15,10.0,NNE,6.9,-,N/A,,Overcast,20,2012-10-07 13:53:00
9:53 AM,59.0,50.0,72,30.16,10.0,North,10.4,-,N/A,,Overcast,350,2012-10-07 14:53:00
10:25 AM,60.8,51.8,72,30.16,10.0,NNE,9.2,-,N/A,,Overcast,30,2012-10-07 15:25:00
10:53 AM,61.0,51.1,70,30.15,10.0,North,8.1,-,N/A,,Overcast,350,2012-10-07 15:53:00
11:53 AM,61.0,51.1,70,30.15,10.0,North,10.4,-,N/A,,Overcast,360,2012-10-07 16:53:00
12:53 PM,61.0,51.1,70,30.14,10.0,NNW,9.2,-,N/A,,Overcast,330,2012-10-07 17:53:00
1:53 PM,63.0,52.0,67,30.11,10.0,NW,10.4,-,N/A,,Overcast,320,2012-10-07 18:53:00
2:43 PM,66.2,53.6,64,30.09,10.0,NNW,10.4,17.3,N/A,,Scattered Clouds,340,2012-10-07 19:43:00
2:53 PM,66.9,52.0,59,30.08,10.0,NNW,5.8,-,N/A,,Partly Cloudy,340,2012-10-07 19:53:00
3:53 PM,69.1,53.1,57,30.07,10.0,NNE,5.8,-,N/A,,Clear,30,2012-10-07 20:53:00
4:53 PM,68.0,52.0,56,30.07,10.0,NNE,11.5,-,N/A,,Scattered Clouds,20,2012-10-07 21:53:00
5:53 PM,64.0,51.1,63,30.09,10.0,North,11.5,18.4,N/A,,Partly Cloudy,360,2012-10-07 22:53:00
6:53 PM,59.0,50.0,72,30.10,10.0,North,6.9,-,N/A,,Clear,10,2012-10-07 23:53:00
7:53 PM,57.9,50.0,75,30.11,10.0,North,5.8,-,N/A,,Clear,350,2012-10-08 00:53:00
8:53 PM,57.0,50.0,77,30.14,10.0,North,4.6,-,N/A,,Clear,360,2012-10-08 01:53:00
9:53 PM,55.9,48.0,75,30.14,10.0,NNE,4.6,-,N/A,,Clear,30,2012-10-08 02:53:00
10:53 PM,55.0,46.9,74,30.15,10.0,North,4.6,-,N/A,,Clear,10,2012-10-08 03:53:00
11:53 PM,53.1,46.9,80,30.13,10.0,NNE,3.5,-,N/A,,Clear,30,2012-10-08 04:53:00